カタログに戻る

KUIPER-00222

運用中通信LEO
NORAD 67782·PAYLOAD·🇺🇸 United States

打ち上げ Feb 12, 2026 から Guiana Space Centre

Loading…

次のパス (今後24時間)

TLE

最新Source: CelesTrak SupGP

元期: Sep 14, 2026, 16:08 UTC

1 67782C 26030U   26257.67233796 -.00003572  00000+0 -46765-3 0  2572
2 67782  51.8973  85.0652 0001008 113.7919 198.1592 14.79928235    17

AllMySatでKUIPER-00222をリアルタイム追跡

Download on the App Store